Regional Weather Roundup
Issued by NWS

Home | Current Version | Previous Version | Text Only | Print | Product List | Glossary Off
Versions: 1 2 3 4 5 6 7 8 9 10 11 12 13 14 15 16 17 18 19 20 21 22 23 24 25 26 27 28 29 30 31 32 33 34 35 36 37 38 39 40 41 42 43 44 45 46 47 48 49 50

000
ASUS43 KMKX 171321
RWRWI

WISCONSIN REGIONAL WEATHER ROUNDUP
NATIONAL WEATHER SERVICE MILWAUKEE/SULLIVAN WI
700 AM CST WED DEC 17 2014

NOTE: "FAIR" INDICATES FEW OR NO CLOUDS BELOW 12,000 FEET WITH NO
SIGNIFICANT WEATHER AND/OR OBSTRUCTIONS TO VISIBILITY.

WIZ001-002-006>008-014>016-023>028-171400-
NORTHWEST WISCONSIN

CITY           SKY/WX    TMP DP  RH WIND       PRES   REMARKS
SUPERIOR ARPT  CLOUDY    14  10  82 N6        30.27R WCI   5
ASHLAND        LGT SNOW  16  13  88 W7        30.22R FOG     WCI   6
HAYWARD        LGT SNOW  13   8  81 VRB3      30.22R
SIREN          PTCLDY    11   8  87 NW3       30.27R
CUMBERLAND     FLURRIES  14  10  85 NW12      30.22S WCI   0
RICE LAKE      FLURRIES  17  12  80 NW8       30.25R WCI   6
CHETEK         CLOUDY    17  11  78 NW3       30.23S
LADYSMITH      LGT SNOW  17  13  82 NW9       30.22R WCI   6
EAU CLAIRE     CLOUDY    18  12  77 W8        30.24R WCI   8
MENOMONIE      CLOUDY    16  12  83 W8        30.26R WCI   6
NEW RICHMOND   FLURRIES  11   9  93 W8        30.28R WCI  -1
OSCEOLA        LGT SNOW  12  10  92 W7        30.31S WCI   2
$$

WIZ003>005-009-010-017-018-171400-
NORTH CENTRAL WISCONSIN

CITY           SKY/WX    TMP DP  RH WIND       PRES   REMARKS
MANITOWISH WTR LGT SNOW  15  13  91 W9        30.11S WCI   3
ARBOR VITAE    FLURRIES  17  13  86 NW7       30.11S WCI   7
WOODRUFF       FLURRIES  17  13  86 NW7       30.11S WCI   7
RHINELANDER    CLOUDY    14  10  84 W8        30.11R WCI   3
EAGLE RIVER    LGT SNOW  17  14  89 W9        30.09R WCI   5
LAND O LAKES   LGT SNOW  18  15  89 NW6       30.09R WCI  10
PHILLIPS       LGT SNOW  15  11  85 W5        30.15R WCI   7
TOMAHAWK       PTCLDY    12   9  87 CALM      30.15R
MEDFORD        FLURRIES  17  12  82 NW7       30.16R WCI   7
MERRILL        PTCLDY    16  10  78 N8        30.15R WCI   5
$$

WIZ029-030-035-036-043>047-171400-
CENTRAL WISCONSIN

CITY           SKY/WX    TMP DP  RH WIND       PRES   REMARKS
WAUSAU         CLOUDY    18  11  74 NW12      30.15R WCI   5
MOSINEE        NOT AVBL
MARSHFIELD     FLURRIES  20  15  81 NW14      30.17R WCI   7
STEVENS POINT  CLOUDY    19  12  74 W9        30.18R WCI   8
WAUPACA        CLOUDY    25  17  70 NW13      30.18R WCI  14
WAUTOMA        CLOUDY    23  16  75 NW13      30.20R WCI  11
WISC RAPIDS    CLOUDY    21  13  71 W10       30.20R WCI  10
CAMP DOUGLAS   CLOUDY    21  19  93 W15       30.21S WCI   8
$$

WIZ011>013-019>022-031-037>040-048>050-171400-
NORTHEAST WISCONSIN

CITY           SKY/WX    TMP DP  RH WIND       PRES   REMARKS
ANTIGO         FLURRIES  16  12  84 W13G18    30.11R WCI   3
SHAWANO        CLOUDY    24  16  70 NW6       30.15R WCI  17
OCONTO         CLOUDY    23  17  75 W10G16    30.12S WCI  13
STURGEON BAY   PTCLDY    23  16  74 W12G17    30.11R WCI  12
GREEN BAY      CLOUDY    24  16  71 W13       30.15R WCI  12
MANITOWOC      CLEAR     23  18  81 W13       30.14R WCI  11
APPLETON       CLOUDY    23  16  74 NW12      30.16R WCI  12
CLINTONVILLE   CLOUDY    23  14  68 W12       30.16R WCI  12
OSHKOSH        CLOUDY    24  16  71 W14       30.17R WCI  12
$$

WIZ032>034-041-042-053>061-171400-
SOUTHWEST WISCONSIN

CITY           SKY/WX    TMP DP  RH WIND       PRES   REMARKS
LA CROSSE      CLOUDY    22  14  71 W13       30.26S WCI  10
SPARTA         CLOUDY    21  15  76 W8        30.25S WCI  11
VIROQUA        CLOUDY    19  17  89 W10       30.21S WCI   8
BOSCOBEL       CLOUDY    23  14  68 NW7       30.27R WCI  15
PRAIRIE DU CHI CLOUDY    21  15  76 NW9       30.28R WCI  11
PLATTEVILLE    CLOUDY    22  18  84 W8        30.25R WCI  13
$$

WIZ056-057-062-063-064-067-068-171400-
SOUTH CENTRAL WISCONSIN

CITY           SKY/WX    TMP DP  RH WIND       PRES   REMARKS
REEDSBURG      CLOUDY    22  16  78 W8        30.21S WCI  12
BARABOO/DELLS  CLOUDY    22  16  78 NW7       30.21R WCI  13
LONE ROCK      CLOUDY    26  15  63 W14       30.25R WCI  14
MINERAL POINT  CLOUDY    23  18  80 NW8       30.22R WCI  14
MADISON        CLOUDY    23  15  71 NW10      30.21R WCI  12
MIDDLETON      CLOUDY    24  17  74 W13       30.21S WCI  13
WATERTOWN      CLOUDY    24  18  80 NW12G17   30.19R WCI  13
MONROE         CLOUDY    23  19  86 W15G21    30.21R WCI  10
JANESVILLE     CLOUDY    27  18  69 W8        30.21R WCI  18
$$

WIZ051-052-058>065-066-070>072-171400-
SOUTHEAST WISCONSIN

CITY           SKY/WX    TMP DP  RH WIND       PRES   REMARKS
MILWAUKEE      CLOUDY    26  16  65 W10       30.18R WCI  16
WAUKESHA       CLOUDY    23  18  80 NW12G25   30.18  WCI  12
MILWAUKEE/TIMM CLOUDY    25  18  74 W14       30.18R WCI  13
RACINE         CLOUDY    27  16  63 NW9       30.20R WCI  18
BURLINGTON     CLOUDY    24  17  74 W10       30.19S WCI  13
KENOSHA        CLOUDY    26  17  68 W15       30.19R WCI  14
FOND DU LAC    CLOUDY    24  16  71 NW13      30.17R WCI  12
SHEBOYGAN      CLOUDY    25  17  72 NW9       30.15R WCI  15
WEST BEND      CLOUDY    25  18  74 W13G20    30.16R WCI  13
JUNEAU         CLOUDY    23  17  77 W8G20     30.19S WCI  13
$$

LSZ147-162-171400-
LAKE SUPERIOR

STATION/POSITION TIME  TEMP    WIND        PRES    WAVE
                       AIR SEA DIR/SP/G            HT/PER
                 (UTC) (F)     (DEG/KT/KT) (MB)    (FT/S)
DEVILS ISLAND    1300   20     360/ 13/ 16 1024.2R
PORT WING        1200   19     340/ 12/ 18 1023.7R
SAXON HARBOR     1200   20     270/  6/ 10 1022.4R
$$

LMZ867-665-643>646-171400-
LAKE MICHIGAN

STATION/POSITION TIME  TEMP    WIND        PRES    WAVE
                       AIR SEA DIR/SP/G            HT/PER
                 (UTC) (F)     (DEG/KT/KT) (MB)    (FT/S)
CHAMBERS ISLAND  1200   25     270/  7/ 15 1018.6R
NORTHPORT PIER   1200   26     290/ 12/ 22 1017.6R
SISTER BAY       1113          320/ 24/ 27   N/A
ALGOMA LAKESHORE 1129          320/ 11/ 18   N/A
KEWAUNEE LAKESHO 1200   24     290/ 10/ 14 1018.6R
SHEBOYGAN LAKESH 1300   26 36  300/ 12/ 14 1022.1R
PORT WASHINGTON  1200   27     300/  8/ 14 1022.0
MILWAUKEE LAKESH 1300   26     290/ 12/ 16   N/A
KENOSHA   LAKESH 1300   27     280/  9/ 13 1022.4S
$$

TC  - TEMPERATURE IN CELSIUS
VSB - VISIBILITY IN STATUTE MILES
WCI - WIND CHILL INDEX
HX  - HEAT INDEX



USA.gov is the U.S. government's official web portal to all federal, state and local government web resources and services.